Showing default

FORMOSAT7-1/COSMIC2-1, 44349

Orbit data source: Space-Track

FORMOSAT7-1/COSMIC2-1, 44349 is a payload satellite owned by NSPO (TW) in LEO that was launched on Tue, 25 Jun 2019 UTC via an FALCON HEAVY launch vehicle from the Air Force Eastern Test Range (AFETR). Payload-class satellites include a variety of spacecraft equipped with specific instruments for various scientific and technological missions. These include communications satellites like Starlink; space stations such as the ISS; scientific satellites like the Hubble; Earth observation satellites from companies like Planet Labs, Umbra, and HawkEye 360; GPS; miniature CubeSats for education and research; and military/defense satellites.

Not visible in the next 10 days
Identifier
44349, 2019-036L
Orbit
LEO
Country
Flag of TWTW / TWN
Related business
Manufacturer
SSTL (Astrium)
Mission
Operational Civil Weather
Bus & Motor
SSTL-100, Unknown motor
Mass
278 kg wet, 278 kg dry
Launch date (UTC)
2019-06-25 (6 years ago)
Launch vehicle
FALCON HEAVY
Launch site
Air Force Eastern Test Range (AFETR)
Object type
Payload
Rocket body
Debris
Shape & HBR
Box + 1 Pan, 1.5 m
Radar Cross Section
2.189 m², Large (>1 m²)

Expand to show TLE details & history
Last TLE update: 1 day ago

TLE from 1 day ago
0 FORMOSAT7-1/COSMIC2-1
1 44349U 19036L   25305.87541051  .00004154  00000-0  31778-3 0  9992
2 44349  23.9965 125.8980 0000900 158.2437 201.8102 14.98010325350557
Epoch: 2025-11-01T21:00Z
TLE epoch observation values (Epoch: 2025-11-01T21:00:35.468Z)
Latitude
-0.00002°
Longitude
129.35097°
Altitude
571.513 km
Speed
7.578 km/s
True Right ascension
08h 23m 35s
True Declination
0° 00' 00"
Sunlit
Object was in daylight at epoch
Visualization orbit readout
Latitude
Unknown
Longitude
Unknown
Altitude
Unknown
Speed
Unknown
Apparent Right ascension
Unknown
Apparent Declination
Unknown
Sunlit
N/A
Visualization observer readout
Local Sidereal Time
21:49:12
Azimuth
Unknown
Elevation
Unknown
Doppler factor
Unknown
Orbital elements
Apogee altitude
578.441 km
Perigee altitude
577.189 km
Semi-major axis
6,955.952 km
Eccentricity
0.00009
Inclination
23.9965°
RAAN
125.898°
Arg. of periapsis
158.2437°
True anomaly
201.80637°
Mean anomaly
201.8102°
Eccentric anomaly
201.80828°
Mean motion
3.74118 °/min
Orbital period
96.23 mins
BSTAR
0.00031778
Loading maneuver chart data...
Computing Atmospheric mass density...
Loading historical data...
Loading historical data...
Loading historical data...
Loading historical data...
Loading historical data...
Loading historical data...
Loading historical data...

Documentation

Showing up to 5 results
|